Time,TemperatureF,DewpointF,PressureIn,WindDirection,WindDirectionDegrees,WindSpeedMPH,WindSpeedGustMPH,Humidity,HourlyPrecipIn,Conditions,Clouds,dailyrainin,SoftwareType,DateUTC
2013-03-08 00:00:00,37.8,26.5,30.19,NNE,22,0.0,0.0,64,0.00,,,0.00,WX3IN1Plus v1.30,2013-03-08 05:00:00,
2013-03-08 00:02:00,37.9,26.3,30.19,NNE,22,0.0,0.0,63,0.00,,,0.00,WX3IN1Plus v1.30,2013-03-08 05:02:00,
2013-03-08 00:07:00,37.9,26.5,30.19,NNE,22,0.0,0.0,64,0.00,,,0.00,WX3IN1Plus v1.30,2013-03-08 05:07:00,
2013-03-08 00:12:00,37.7,26.5,30.19,NNE,22,0.0,0.0,64,0.00,,,0.00,WX3IN1Plus v1.30,2013-03-08 05:12:00,
2013-03-08 00:17:00,37.7,26.5,30.19,NNE,22,0.0,0.0,64,0.00,,,0.00,WX3IN1Plus v1.30,2013-03-08 05:17:00,
2013-03-08 00:22:00,37.6,27.0,30.19,NNW,334,0.0,3.7,65,0.00,,,0.00,WX3IN1Plus v1.30,2013-03-08 05:22:00,
2013-03-08 00:27:00,37.6,27.0,30.19,WNW,302,0.0,4.0,65,0.00,,,0.00,WX3IN1Plus v1.30,2013-03-08 05:27:00,
2013-03-08 00:33:00,37.9,26.5,30.19,North,11,0.0,4.0,64,0.00,,,0.00,WX3IN1Plus v1.30,2013-03-08 05:33:00,
2013-03-08 00:38:00,37.8,26.5,30.19,North,11,0.0,0.0,64,0.00,,,0.00,WX3IN1Plus v1.30,2013-03-08 05:38:00,
2013-03-08 00:43:00,37.7,26.5,30.19,North,11,0.0,0.0,64,0.00,,,0.00,WX3IN1Plus v1.30,2013-03-08 05:43:00,
2013-03-08 00:48:00,37.8,26.5,30.19,North,11,0.0,0.0,64,0.00,,,0.00,WX3IN1Plus v1.30,2013-03-08 05:48:00,
2013-03-08 00:53:00,37.5,26.3,30.20,North,11,0.0,0.0,64,0.00,,,0.00,WX3IN1Plus v1.30,2013-03-08 05:53:00,
2013-03-08 00:58:00,37.2,26.5,30.20,North,11,0.0,0.0,65,0.00,,,0.00,WX3IN1Plus v1.30,2013-03-08 05:58:00,
2013-03-08 01:03:00,36.9,26.5,30.20,North,11,0.0,0.0,66,0.00,,,0.00,WX3IN1Plus v1.30,2013-03-08 06:03:00,
2013-03-08 01:08:00,36.8,26.8,30.20,North,11,0.0,0.0,67,0.00,,,0.00,WX3IN1Plus v1.30,2013-03-08 06:08:00,
2013-03-08 01:13:00,36.5,26.8,30.20,North,11,0.0,0.0,68,0.00,,,0.00,WX3IN1Plus v1.30,2013-03-08 06:13:00,
2013-03-08 01:18:00,36.3,27.0,30.20,NNW,337,0.0,1.4,69,0.00,,,0.00,WX3IN1Plus v1.30,2013-03-08 06:18:00,
2013-03-08 01:23:00,36.1,27.0,30.20,NNW,341,0.0,2.1,70,0.00,,,0.00,WX3IN1Plus v1.30,2013-03-08 06:23:00,
2013-03-08 01:28:00,36.5,27.9,30.20,NNE,15,5.5,5.5,71,0.00,,,0.00,WX3IN1Plus v1.30,2013-03-08 06:28:00,
2013-03-08 01:33:00,36.7,27.7,30.20,NE,40,2.9,6.8,70,0.00,,,0.00,WX3IN1Plus v1.30,2013-03-08 06:33:00,
2013-03-08 01:38:00,36.9,27.7,30.20,NNW,347,2.4,5.3,69,0.00,,,0.00,WX3IN1Plus v1.30,2013-03-08 06:38:00,
2013-03-08 01:43:00,37.4,28.3,30.20,NE,45,1.3,4.9,69,0.00,,,0.00,WX3IN1Plus v1.30,2013-03-08 06:43:00,
2013-03-08 01:48:00,37.6,28.4,30.20,NNE,25,0.0,3.7,69,0.00,,,0.00,WX3IN1Plus v1.30,2013-03-08 06:48:00,
2013-03-08 01:53:00,37.4,28.3,30.20,NE,52,3.4,5.5,69,0.00,,,0.00,WX3IN1Plus v1.30,2013-03-08 06:53:00,
2013-03-08 01:58:00,37.4,28.3,30.20,NNE,26,2.7,6.7,69,0.00,,,0.00,WX3IN1Plus v1.30,2013-03-08 06:58:00,
2013-03-08 02:03:00,37.5,28.3,30.20,North,352,2.1,5.7,69,0.00,,,0.00,WX3IN1Plus v1.30,2013-03-08 07:03:00,
2013-03-08 02:08:00,37.5,28.3,30.20,North,0,0.0,6.5,69,0.00,,,0.00,WX3IN1Plus v1.30,2013-03-08 07:08:00,
2013-03-08 02:13:00,37.3,27.9,30.20,North,11,6.0,7.4,69,0.00,,,0.00,WX3IN1Plus v1.30,2013-03-08 07:13:00,
2013-03-08 02:18:00,37.2,27.9,30.20,NNE,14,8.3,9.6,69,0.00,,,0.00,WX3IN1Plus v1.30,2013-03-08 07:18:00,
2013-03-08 02:23:00,37.1,27.9,30.19,NNE,30,2.9,10.3,69,0.00,,,0.00,WX3IN1Plus v1.30,2013-03-08 07:23:00,
2013-03-08 02:28:00,37.0,27.7,30.19,NE,42,3.2,9.6,69,0.00,,,0.00,WX3IN1Plus v1.30,2013-03-08 07:28:00,
2013-03-08 02:33:00,37.0,27.7,30.19,North,5,4.9,9.1,69,0.00,,,0.00,WX3IN1Plus v1.30,2013-03-08 07:33:00,
2013-03-08 02:38:00,36.9,27.7,30.19,East,88,1.8,8.3,69,0.00,,,0.00,WX3IN1Plus v1.30,2013-03-08 07:38:00,
2013-03-08 02:43:00,36.7,27.5,30.19,NNE,25,2.7,7.4,69,0.00,,,0.00,WX3IN1Plus v1.30,2013-03-08 07:43:00,
2013-03-08 02:48:00,36.6,27.5,30.19,NNE,25,5.7,8.6,70,0.00,,,0.00,WX3IN1Plus v1.30,2013-03-08 07:48:00,
2013-03-08 02:53:00,36.5,27.5,30.18,North,1,1.6,9.1,70,0.00,,,0.00,WX3IN1Plus v1.30,2013-03-08 07:53:00,
2013-03-08 02:58:00,36.3,27.2,30.18,NNW,327,0.0,7.3,70,0.00,,,0.00,WX3IN1Plus v1.30,2013-03-08 07:58:00,
2013-03-08 03:03:00,36.3,27.2,30.18,NE,52,2.2,6.7,70,0.00,,,0.00,WX3IN1Plus v1.30,2013-03-08 08:03:00,
2013-03-08 03:08:00,36.0,27.0,30.18,North,2,0.0,6.3,70,0.00,,,0.00,WX3IN1Plus v1.30,2013-03-08 08:08:00,
2013-03-08 03:13:00,35.8,27.5,30.18,NNE,19,5.2,7.3,71,0.00,,,0.00,WX3IN1Plus v1.30,2013-03-08 08:13:00,
2013-03-08 03:18:00,35.8,27.5,30.18,NNE,28,2.1,5.2,71,0.00,,,0.00,WX3IN1Plus v1.30,2013-03-08 08:18:00,
2013-03-08 03:23:00,35.8,27.5,30.18,NE,42,3.2,5.2,71,0.00,,,0.00,WX3IN1Plus v1.30,2013-03-08 08:23:00,
2013-03-08 03:28:00,35.6,27.2,30.17,NNW,330,4.9,8.8,71,0.00,,,0.00,WX3IN1Plus v1.30,2013-03-08 08:28:00,
2013-03-08 03:33:00,35.8,27.0,30.17,North,358,0.0,6.4,70,0.00,,,0.00,WX3IN1Plus v1.30,2013-03-08 08:33:00,
2013-03-08 03:38:00,35.7,26.8,30.17,NNE,28,4.4,6.0,70,0.00,,,0.00,WX3IN1Plus v1.30,2013-03-08 08:38:00,
2013-03-08 03:43:00,35.7,26.8,30.17,NE,49,3.4,5.9,70,0.00,,,0.00,WX3IN1Plus v1.30,2013-03-08 08:43:00,
2013-03-08 03:48:00,35.5,26.3,30.17,NNE,32,4.0,7.3,69,0.00,,,0.00,WX3IN1Plus v1.30,2013-03-08 08:48:00,
2013-03-08 03:53:00,35.5,25.7,30.17,NW,319,4.2,7.2,68,0.00,,,0.00,WX3IN1Plus v1.30,2013-03-08 08:53:00,
2013-03-08 03:58:00,35.5,25.7,30.17,NNE,29,1.9,6.8,68,0.00,,,0.00,WX3IN1Plus v1.30,2013-03-08 08:58:00,
2013-03-08 04:03:00,35.6,26.1,30.17,NE,50,3.0,3.9,68,0.00,,,0.00,WX3IN1Plus v1.30,2013-03-08 09:03:00,
2013-03-08 04:08:00,35.5,25.7,30.17,NE,47,3.1,5.7,68,0.00,,,0.00,WX3IN1Plus v1.30,2013-03-08 09:08:00,
2013-03-08 04:13:00,35.3,25.6,30.17,NNE,30,2.4,5.0,68,0.00,,,0.00,WX3IN1Plus v1.30,2013-03-08 09:13:00,
2013-03-08 04:18:00,35.3,25.6,30.17,NNW,348,1.1,7.5,68,0.00,,,0.00,WX3IN1Plus v1.30,2013-03-08 09:18:00,
2013-03-08 04:23:00,35.3,25.6,30.17,North,357,3.3,6.6,68,0.00,,,0.00,WX3IN1Plus v1.30,2013-03-08 09:23:00,
2013-03-08 04:28:00,35.0,25.4,30.17,NE,39,1.9,4.6,68,0.00,,,0.00,WX3IN1Plus v1.30,2013-03-08 09:28:00,
2013-03-08 04:33:00,34.9,25.4,30.17,NNW,343,3.6,6.3,68,0.00,,,0.00,WX3IN1Plus v1.30,2013-03-08 09:33:00,
2013-03-08 04:38:00,34.8,25.0,30.17,NNE,12,3.2,3.9,68,0.00,,,0.00,WX3IN1Plus v1.30,2013-03-08 09:38:00,
2013-03-08 04:43:00,34.5,24.8,30.17,NNW,348,0.9,3.7,68,0.00,,,0.00,WX3IN1Plus v1.30,2013-03-08 09:43:00,
2013-03-08 04:48:00,34.5,24.8,30.17,NE,52,0.0,3.1,68,0.00,,,0.00,WX3IN1Plus v1.30,2013-03-08 09:48:00,
2013-03-08 04:53:00,34.3,25.0,30.17,North,1,0.0,4.7,69,0.00,,,0.00,WX3IN1Plus v1.30,2013-03-08 09:53:00,
2013-03-08 04:58:00,34.4,25.4,30.17,North,0,2.9,4.7,69,0.00,,,0.00,WX3IN1Plus v1.30,2013-03-08 09:58:00,
2013-03-08 05:03:00,34.2,25.0,30.17,NE,35,1.9,7.4,69,0.00,,,0.00,WX3IN1Plus v1.30,2013-03-08 10:03:00,
2013-03-08 05:08:00,34.2,25.4,30.17,NNE,33,3.6,7.1,70,0.00,,,0.00,WX3IN1Plus v1.30,2013-03-08 10:08:00,
2013-03-08 05:13:00,34.1,25.0,30.17,NNE,14,2.9,6.7,70,0.00,,,0.00,WX3IN1Plus v1.30,2013-03-08 10:13:00,
2013-03-08 05:18:00,34.2,25.4,30.17,ENE,64,5.8,7.5,70,0.00,,,0.00,WX3IN1Plus v1.30,2013-03-08 10:18:00,
2013-03-08 05:23:00,34.4,25.6,30.17,NE,47,6.2,6.3,70,0.00,,,0.00,WX3IN1Plus v1.30,2013-03-08 10:23:00,
2013-03-08 05:28:00,34.3,25.4,30.17,NE,49,4.0,7.0,70,0.00,,,0.00,WX3IN1Plus v1.30,2013-03-08 10:28:00,
2013-03-08 05:33:00,34.3,25.4,30.17,NNE,12,3.8,6.4,70,0.00,,,0.00,WX3IN1Plus v1.30,2013-03-08 10:33:00,
2013-03-08 05:38:00,34.3,25.4,30.17,NE,47,2.1,6.5,70,0.00,,,0.00,WX3IN1Plus v1.30,2013-03-08 10:38:00,
2013-03-08 05:43:00,34.3,25.4,30.16,NNE,14,5.4,5.4,70,0.00,,,0.00,WX3IN1Plus v1.30,2013-03-08 10:43:00,
2013-03-08 05:48:00,34.2,25.4,30.17,North,355,0.0,5.4,70,0.00,,,0.00,WX3IN1Plus v1.30,2013-03-08 10:48:00,
2013-03-08 05:53:00,34.0,25.6,30.17,North,350,0.0,4.5,71,0.00,,,0.00,WX3IN1Plus v1.30,2013-03-08 10:53:00,
2013-03-08 05:58:00,34.0,25.6,30.16,NNE,33,0.0,2.6,71,0.00,,,0.00,WX3IN1Plus v1.30,2013-03-08 10:58:00,
2013-03-08 06:03:00,33.8,25.7,30.16,NNW,333,0.4,7.2,72,0.00,,,0.00,WX3IN1Plus v1.30,2013-03-08 11:03:00,
2013-03-08 06:08:00,33.8,25.7,30.16,North,350,1.8,7.8,72,0.00,,,0.00,WX3IN1Plus v1.30,2013-03-08 11:08:00,
2013-03-08 06:13:00,34.0,25.6,30.17,ENE,60,3.0,6.8,71,0.00,,,0.00,WX3IN1Plus v1.30,2013-03-08 11:13:00,
2013-03-08 06:18:00,34.2,25.4,30.17,NNE,19,5.6,10.0,70,0.00,,,0.00,WX3IN1Plus v1.30,2013-03-08 11:18:00,
2013-03-08 06:23:00,34.0,25.0,30.17,North,358,1.8,6.4,70,0.00,,,0.00,WX3IN1Plus v1.30,2013-03-08 11:23:00,
2013-03-08 06:28:00,34.2,25.4,30.17,NNE,21,2.6,6.5,70,0.00,,,0.00,WX3IN1Plus v1.30,2013-03-08 11:28:00,
2013-03-08 06:33:00,34.2,25.4,30.17,ENE,57,3.4,9.6,70,0.00,,,0.00,WX3IN1Plus v1.30,2013-03-08 11:33:00,
2013-03-08 06:38:00,34.3,25.4,30.17,NNE,32,4.5,7.8,70,0.00,,,0.00,WX3IN1Plus v1.30,2013-03-08 11:38:00,
2013-03-08 06:43:00,34.3,25.4,30.17,NNE,22,3.8,9.4,70,0.00,,,0.00,WX3IN1Plus v1.30,2013-03-08 11:43:00,
2013-03-08 06:48:00,34.4,25.6,30.17,North,358,4.5,9.6,70,0.00,,,0.00,WX3IN1Plus v1.30,2013-03-08 11:48:00,
2013-03-08 06:53:00,34.8,25.7,30.17,East,99,5.8,9.7,70,0.00,,,0.00,WX3IN1Plus v1.30,2013-03-08 11:53:00,
2013-03-08 06:58:00,35.0,25.7,30.17,NNE,23,3.9,12.3,69,0.00,,,0.00,WX3IN1Plus v1.30,2013-03-08 11:58:00,
2013-03-08 07:03:00,35.1,26.1,30.18,NNW,330,8.2,12.7,69,0.00,,,0.00,WX3IN1Plus v1.30,2013-03-08 12:03:00,
2013-03-08 07:08:00,35.2,26.1,30.18,NNE,22,10.5,10.7,69,0.00,,,0.00,WX3IN1Plus v1.30,2013-03-08 12:08:00,
2013-03-08 07:13:00,35.4,26.1,30.18,NNE,14,5.7,10.8,69,0.00,,,0.00,WX3IN1Plus v1.30,2013-03-08 12:13:00,
2013-03-08 07:18:00,35.5,26.3,30.18,NNE,19,3.1,11.9,69,0.00,,,0.00,WX3IN1Plus v1.30,2013-03-08 12:18:00,
2013-03-08 07:23:00,35.7,26.5,30.19,NNE,22,4.7,11.0,69,0.00,,,0.00,WX3IN1Plus v1.30,2013-03-08 12:23:00,
2013-03-08 07:28:00,35.7,26.5,30.19,NNW,333,5.5,12.5,69,0.00,,,0.00,WX3IN1Plus v1.30,2013-03-08 12:28:00,
2013-03-08 07:33:00,35.9,26.8,30.19,NE,39,7.8,14.3,69,0.00,,,0.00,WX3IN1Plus v1.30,2013-03-08 12:33:00,
2013-03-08 07:38:00,36.3,26.5,30.19,NE,45,3.1,11.6,68,0.00,,,0.00,WX3IN1Plus v1.30,2013-03-08 12:38:00,
2013-03-08 07:43:00,36.6,26.8,30.19,NW,324,6.1,11.5,68,0.00,,,0.00,WX3IN1Plus v1.30,2013-03-08 12:43:00,
2013-03-08 07:48:00,36.7,27.0,30.19,NE,42,3.5,14.4,68,0.00,,,0.00,WX3IN1Plus v1.30,2013-03-08 12:48:00,
2013-03-08 07:53:00,36.9,27.2,30.19,NNE,28,7.3,9.5,68,0.00,,,0.00,WX3IN1Plus v1.30,2013-03-08 12:53:00,
2013-03-08 07:58:00,37.1,27.5,30.20,North,5,7.8,18.3,68,0.00,,,0.00,WX3IN1Plus v1.30,2013-03-08 12:58:00,
2013-03-08 08:03:00,37.2,27.2,30.20,NNE,12,6.3,14.2,67,0.00,,,0.00,WX3IN1Plus v1.30,2013-03-08 13:03:00,
2013-03-08 08:08:00,37.4,27.0,30.20,NNE,28,11.0,15.4,66,0.00,,,0.00,WX3IN1Plus v1.30,2013-03-08 13:08:00,
2013-03-08 08:13:00,37.2,26.8,30.20,NNE,22,7.2,20.2,66,0.00,,,0.00,WX3IN1Plus v1.30,2013-03-08 13:13:00,
2013-03-08 08:18:00,37.6,27.2,30.20,ENE,74,2.4,16.7,66,0.00,,,0.00,WX3IN1Plus v1.30,2013-03-08 13:18:00,
2013-03-08 08:23:00,38.0,26.1,30.19,North,358,11.0,24.1,62,0.00,,,0.00,WX3IN1Plus v1.30,2013-03-08 13:23:00,
2013-03-08 08:28:00,37.9,25.6,30.20,NW,305,13.7,23.2,61,0.00,,,0.00,WX3IN1Plus v1.30,2013-03-08 13:28:00,
2013-03-08 08:33:00,37.9,24.3,30.19,East,95,9.5,24.8,58,0.00,,,0.00,WX3IN1Plus v1.30,2013-03-08 13:33:00,
2013-03-08 08:38:00,38.4,25.0,30.19,NNE,22,8.7,21.3,58,0.00,,,0.00,WX3IN1Plus v1.30,2013-03-08 13:38:00,
2013-03-08 08:43:00,38.5,24.7,30.19,NNE,32,7.0,21.3,57,0.00,,,0.00,WX3IN1Plus v1.30,2013-03-08 13:43:00,
2013-03-08 08:48:00,38.6,23.6,30.19,NE,47,8.5,19.3,55,0.00,,,0.00,WX3IN1Plus v1.30,2013-03-08 13:48:00,
2013-03-08 08:53:00,38.5,22.9,30.20,NNE,14,20.9,22.1,53,0.00,,,0.00,WX3IN1Plus v1.30,2013-03-08 13:53:00,
2013-03-08 08:58:00,38.5,22.9,30.20,North,4,12.1,23.8,53,0.00,,,0.00,WX3IN1Plus v1.30,2013-03-08 13:58:00,
2013-03-08 09:03:00,38.4,23.2,30.20,North,0,11.8,20.6,54,0.00,,,0.00,WX3IN1Plus v1.30,2013-03-08 14:03:00,
2013-03-08 09:08:00,38.5,22.9,30.20,NE,50,16.4,26.9,53,0.00,,,0.00,WX3IN1Plus v1.30,2013-03-08 14:08:00,
2013-03-08 09:13:00,38.6,22.9,30.20,NNW,327,9.7,23.1,53,0.00,,,0.00,WX3IN1Plus v1.30,2013-03-08 14:13:00,
2013-03-08 09:18:00,38.8,23.2,30.20,ENE,77,8.3,19.0,53,0.00,,,0.00,WX3IN1Plus v1.30,2013-03-08 14:18:00,
2013-03-08 09:23:00,39.2,23.9,30.20,North,358,9.4,21.3,54,0.00,,,0.00,WX3IN1Plus v1.30,2013-03-08 14:23:00,
2013-03-08 09:28:00,39.4,23.4,30.21,NNE,33,13.1,23.6,52,0.00,,,0.00,WX3IN1Plus v1.30,2013-03-08 14:28:00,
2013-03-08 09:33:00,39.3,23.2,30.21,NNE,23,14.7,21.3,52,0.00,,,0.00,WX3IN1Plus v1.30,2013-03-08 14:33:00,
2013-03-08 09:38:00,39.7,23.4,30.21,ENE,71,7.3,23.3,52,0.00,,,0.00,WX3IN1Plus v1.30,2013-03-08 14:38:00,
2013-03-08 09:43:00,39.6,22.9,30.21,NNE,28,13.3,21.9,51,0.00,,,0.00,WX3IN1Plus v1.30,2013-03-08 14:43:00,
2013-03-08 09:48:00,39.5,22.9,30.21,NNE,29,12.4,22.3,51,0.00,,,0.00,WX3IN1Plus v1.30,2013-03-08 14:48:00,
2013-03-08 09:53:00,39.6,22.9,30.21,North,8,10.0,28.4,51,0.00,,,0.00,WX3IN1Plus v1.30,2013-03-08 14:53:00,
2013-03-08 09:58:00,39.5,22.9,30.21,NNW,330,7.2,21.0,51,0.00,,,0.00,WX3IN1Plus v1.30,2013-03-08 14:58:00,
2013-03-08 10:03:00,39.9,22.7,30.21,NNE,21,9.3,20.5,50,0.00,,,0.00,WX3IN1Plus v1.30,2013-03-08 15:03:00,
2013-03-08 10:08:00,40.3,23.6,30.21,NNE,22,5.8,23.0,51,0.00,,,0.00,WX3IN1Plus v1.30,2013-03-08 15:08:00,
2013-03-08 10:13:00,40.6,23.4,30.21,NE,43,20.7,21.5,50,0.00,,,0.00,WX3IN1Plus v1.30,2013-03-08 15:13:00,
2013-03-08 10:18:00,40.9,23.6,30.21,North,352,10.8,29.7,50,0.00,,,0.00,WX3IN1Plus v1.30,2013-03-08 15:18:00,
2013-03-08 10:23:00,41.1,23.4,30.21,NNW,344,16.6,24.5,49,0.00,,,0.00,WX3IN1Plus v1.30,2013-03-08 15:23:00,
2013-03-08 10:28:00,41.4,23.6,30.21,North,11,4.9,24.3,49,0.00,,,0.00,WX3IN1Plus v1.30,2013-03-08 15:28:00,
2013-03-08 10:33:00,42.2,23.9,30.21,NNE,26,11.0,22.9,48,0.00,,,0.00,WX3IN1Plus v1.30,2013-03-08 15:33:00,
2013-03-08 10:38:00,42.5,24.3,30.20,NNE,25,9.3,22.8,48,0.00,,,0.00,WX3IN1Plus v1.30,2013-03-08 15:38:00,
2013-03-08 10:43:00,42.5,24.3,30.20,NNE,19,10.6,17.8,48,0.00,,,0.00,WX3IN1Plus v1.30,2013-03-08 15:43:00,
2013-03-08 10:48:00,42.5,24.3,30.20,ENE,70,7.5,23.9,48,0.00,,,0.00,WX3IN1Plus v1.30,2013-03-08 15:48:00,
2013-03-08 10:53:00,42.3,24.1,30.20,NW,323,12.8,21.8,48,0.00,,,0.00,WX3IN1Plus v1.30,2013-03-08 15:53:00,
2013-03-08 10:58:00,42.5,23.6,30.21,NNE,23,15.1,29.5,47,0.00,,,0.00,WX3IN1Plus v1.30,2013-03-08 15:58:00,
2013-03-08 11:03:00,42.6,24.3,30.21,North,351,9.0,22.1,48,0.00,,,0.00,WX3IN1Plus v1.30,2013-03-08 16:03:00,
2013-03-08 11:08:00,43.0,24.8,30.21,NE,37,17.5,24.0,48,0.00,,,0.00,WX3IN1Plus v1.30,2013-03-08 16:08:00,
2013-03-08 11:13:00,43.0,24.8,30.21,NNE,18,14.1,24.0,48,0.00,,,0.00,WX3IN1Plus v1.30,2013-03-08 16:13:00,
2013-03-08 11:18:00,43.5,25.0,30.21,North,11,8.0,20.5,48,0.00,,,0.00,WX3IN1Plus v1.30,2013-03-08 16:18:00,
2013-03-08 11:23:00,43.5,24.3,30.21,WNW,300,6.2,17.9,47,0.00,,,0.00,WX3IN1Plus v1.30,2013-03-08 16:23:00,
2013-03-08 11:28:00,43.5,25.0,30.21,NNW,334,9.6,19.3,48,0.00,,,0.00,WX3IN1Plus v1.30,2013-03-08 16:28:00,
2013-03-08 11:33:00,43.5,24.3,30.21,NE,36,9.4,19.2,47,0.00,,,0.00,WX3IN1Plus v1.30,2013-03-08 16:33:00,
2013-03-08 11:38:00,43.7,25.4,30.21,NNE,21,9.2,18.9,48,0.00,,,0.00,WX3IN1Plus v1.30,2013-03-08 16:38:00,
2013-03-08 11:43:00,43.8,24.1,30.21,North,358,10.5,23.1,46,0.00,,,0.00,WX3IN1Plus v1.30,2013-03-08 16:43:00,
2013-03-08 11:48:00,44.0,24.8,30.21,NE,49,15.2,23.6,47,0.00,,,0.00,WX3IN1Plus v1.30,2013-03-08 16:48:00,
2013-03-08 11:53:00,43.7,24.1,30.21,North,358,9.2,28.4,46,0.00,,,0.00,WX3IN1Plus v1.30,2013-03-08 16:53:00,
2013-03-08 11:58:00,44.3,26.1,30.21,ENE,57,8.2,15.9,48,0.00,,,0.00,WX3IN1Plus v1.30,2013-03-08 16:58:00,
2013-03-08 12:04:00,44.8,24.8,30.20,NE,37,7.7,20.1,45,0.00,,,0.00,WX3IN1Plus v1.30,2013-03-08 17:04:00,
2013-03-08 12:08:00,45.1,25.4,30.20,NNW,345,13.1,22.9,46,0.00,,,0.00,WX3IN1Plus v1.30,2013-03-08 17:08:00,
2013-03-08 12:14:00,45.3,25.0,30.20,NNE,23,12.9,21.9,45,0.00,,,0.00,WX3IN1Plus v1.30,2013-03-08 17:14:00,
2013-03-08 12:19:00,45.4,25.4,30.21,ENE,61,14.6,26.7,45,0.00,,,0.00,WX3IN1Plus v1.30,2013-03-08 17:19:00,
2013-03-08 12:24:00,45.9,26.3,30.20,NE,40,6.1,21.4,46,0.00,,,0.00,WX3IN1Plus v1.30,2013-03-08 17:24:00,
2013-03-08 12:29:00,46.2,25.7,30.20,North,11,7.7,21.0,45,0.00,,,0.00,WX3IN1Plus v1.30,2013-03-08 17:29:00,
2013-03-08 12:34:00,45.7,26.1,30.20,ENE,67,6.8,12.8,46,0.00,,,0.00,WX3IN1Plus v1.30,2013-03-08 17:34:00,
2013-03-08 12:39:00,45.6,25.7,30.20,NE,40,12.5,18.8,46,0.00,,,0.00,WX3IN1Plus v1.30,2013-03-08 17:39:00,
2013-03-08 12:44:00,45.4,26.3,30.20,North,11,9.6,17.5,47,0.00,,,0.00,WX3IN1Plus v1.30,2013-03-08 17:44:00,
2013-03-08 12:49:00,45.8,26.5,30.20,North,4,7.7,18.8,47,0.00,,,0.00,WX3IN1Plus v1.30,2013-03-08 17:49:00,
2013-03-08 12:54:00,46.2,26.8,30.19,NNW,327,6.8,19.5,47,0.00,,,0.00,WX3IN1Plus v1.30,2013-03-08 17:54:00,
2013-03-08 12:59:00,46.1,26.3,30.19,WNW,291,10.5,15.7,46,0.00,,,0.00,WX3IN1Plus v1.30,2013-03-08 17:59:00,
2013-03-08 13:04:00,46.3,26.5,30.19,NNW,341,8.4,18.5,46,0.00,,,0.00,WX3IN1Plus v1.30,2013-03-08 18:04:00,
2013-03-08 13:09:00,46.6,26.3,30.19,NNE,19,8.9,24.3,45,0.00,,,0.00,WX3IN1Plus v1.30,2013-03-08 18:09:00,
2013-03-08 13:14:00,46.2,26.3,30.19,NNE,14,11.3,21.6,46,0.00,,,0.00,WX3IN1Plus v1.30,2013-03-08 18:14:00,
2013-03-08 13:19:00,46.4,27.2,30.19,NNE,25,7.7,15.5,47,0.00,,,0.00,WX3IN1Plus v1.30,2013-03-08 18:19:00,
2013-03-08 13:24:00,47.1,27.2,30.18,NNW,333,6.4,14.5,46,0.00,,,0.00,WX3IN1Plus v1.30,2013-03-08 18:24:00,
2013-03-08 13:29:00,47.2,26.8,30.19,NE,53,6.9,17.6,45,0.00,,,0.00,WX3IN1Plus v1.30,2013-03-08 18:29:00,
2013-03-08 13:34:00,47.2,27.2,30.18,WNW,292,6.9,15.7,46,0.00,,,0.00,WX3IN1Plus v1.30,2013-03-08 18:34:00,
2013-03-08 13:39:00,47.3,27.5,30.19,ENE,59,12.6,18.3,46,0.00,,,0.00,WX3IN1Plus v1.30,2013-03-08 18:39:00,
2013-03-08 13:44:00,47.2,26.8,30.18,NE,42,12.2,20.7,45,0.00,,,0.00,WX3IN1Plus v1.30,2013-03-08 18:44:00,
2013-03-08 13:49:00,46.7,26.8,30.18,North,11,9.8,17.3,46,0.00,,,0.00,WX3IN1Plus v1.30,2013-03-08 18:49:00,
2013-03-08 13:54:00,46.5,27.2,30.18,NE,40,7.7,19.8,47,0.00,,,0.00,WX3IN1Plus v1.30,2013-03-08 18:54:00,
2013-03-08 13:59:00,46.8,28.3,30.19,North,8,7.5,16.7,48,0.00,,,0.00,WX3IN1Plus v1.30,2013-03-08 18:59:00,
2013-03-08 14:04:00,47.1,27.2,30.19,NE,37,7.3,17.1,46,0.00,,,0.00,WX3IN1Plus v1.30,2013-03-08 19:04:00,
2013-03-08 14:09:00,47.2,27.2,30.18,NE,40,8.9,22.8,46,0.00,,,0.00,WX3IN1Plus v1.30,2013-03-08 19:09:00,
2013-03-08 14:14:00,47.4,27.9,30.19,NNW,333,4.5,15.5,47,0.00,,,0.00,WX3IN1Plus v1.30,2013-03-08 19:14:00,
2013-03-08 14:19:00,47.6,27.7,30.19,North,358,10.1,16.6,46,0.00,,,0.00,WX3IN1Plus v1.30,2013-03-08 19:19:00,
2013-03-08 14:24:00,47.6,27.7,30.19,North,358,6.2,19.3,46,0.00,,,0.00,WX3IN1Plus v1.30,2013-03-08 19:24:00,
2013-03-08 14:29:00,47.9,27.9,30.19,North,358,10.3,20.0,46,0.00,,,0.00,WX3IN1Plus v1.30,2013-03-08 19:29:00,
2013-03-08 14:34:00,47.8,27.7,30.20,NNE,18,5.2,20.5,46,0.00,,,0.00,WX3IN1Plus v1.30,2013-03-08 19:34:00,
2013-03-08 14:39:00,47.6,27.7,30.20,NW,310,6.0,20.0,46,0.00,,,0.00,WX3IN1Plus v1.30,2013-03-08 19:39:00,
2013-03-08 14:44:00,47.4,27.5,30.20,North,358,9.5,15.2,46,0.00,,,0.00,WX3IN1Plus v1.30,2013-03-08 19:44:00,
2013-03-08 14:49:00,47.5,27.7,30.20,North,7,13.0,14.0,46,0.00,,,0.00,WX3IN1Plus v1.30,2013-03-08 19:49:00,
2013-03-08 14:54:00,47.5,27.7,30.19,NNE,33,12.0,22.5,46,0.00,,,0.00,WX3IN1Plus v1.30,2013-03-08 19:54:00,
2013-03-08 14:59:00,47.9,27.5,30.19,NE,43,8.0,26.4,45,0.00,,,0.00,WX3IN1Plus v1.30,2013-03-08 19:59:00,
2013-03-08 15:04:00,48.6,27.7,30.19,NNE,12,11.3,19.7,44,0.00,,,0.00,WX3IN1Plus v1.30,2013-03-08 20:04:00,
2013-03-08 15:09:00,48.5,27.5,30.19,NNE,28,8.5,21.5,44,0.00,,,0.00,WX3IN1Plus v1.30,2013-03-08 20:09:00,
2013-03-08 15:14:00,48.2,27.7,30.18,NNE,14,12.3,21.0,45,0.00,,,0.00,WX3IN1Plus v1.30,2013-03-08 20:14:00,
2013-03-08 15:19:00,48.1,27.7,30.18,NNE,22,9.6,21.0,45,0.00,,,0.00,WX3IN1Plus v1.30,2013-03-08 20:19:00,
2013-03-08 15:24:00,48.0,27.5,30.18,NNW,340,8.8,18.8,45,0.00,,,0.00,WX3IN1Plus v1.30,2013-03-08 20:24:00,
2013-03-08 15:29:00,48.4,28.4,30.18,NE,54,6.7,19.2,46,0.00,,,0.00,WX3IN1Plus v1.30,2013-03-08 20:29:00,
2013-03-08 15:34:00,49.0,27.9,30.18,NNE,18,7.8,14.1,44,0.00,,,0.00,WX3IN1Plus v1.30,2013-03-08 20:34:00,
2013-03-08 15:39:00,49.2,28.3,30.18,NE,50,10.0,17.0,44,0.00,,,0.00,WX3IN1Plus v1.30,2013-03-08 20:39:00,
2013-03-08 15:44:00,48.7,27.7,30.18,NNW,329,12.7,19.1,44,0.00,,,0.00,WX3IN1Plus v1.30,2013-03-08 20:44:00,
2013-03-08 15:49:00,48.3,27.7,30.18,NE,46,7.0,17.2,45,0.00,,,0.00,WX3IN1Plus v1.30,2013-03-08 20:49:00,
2013-03-08 15:54:00,48.1,28.3,30.18,NNE,22,6.5,14.6,46,0.00,,,0.00,WX3IN1Plus v1.30,2013-03-08 20:54:00,
2013-03-08 15:59:00,47.9,27.9,30.18,NE,46,9.7,20.0,46,0.00,,,0.00,WX3IN1Plus v1.30,2013-03-08 20:59:00,
2013-03-08 16:04:00,47.8,27.7,30.18,NE,46,14.7,18.5,46,0.00,,,0.00,WX3IN1Plus v1.30,2013-03-08 21:04:00,
2013-03-08 16:09:00,47.6,27.7,30.18,NNW,327,7.2,17.3,46,0.00,,,0.00,WX3IN1Plus v1.30,2013-03-08 21:09:00,
2013-03-08 16:14:00,47.5,28.3,30.18,NE,43,11.3,12.8,47,0.00,,,0.00,WX3IN1Plus v1.30,2013-03-08 21:14:00,
2013-03-08 16:19:00,47.4,27.9,30.18,NNE,25,8.8,15.1,47,0.00,,,0.00,WX3IN1Plus v1.30,2013-03-08 21:19:00,
2013-03-08 16:24:00,47.4,27.9,30.18,NE,35,9.6,14.6,47,0.00,,,0.00,WX3IN1Plus v1.30,2013-03-08 21:24:00,
2013-03-08 16:29:00,47.5,28.3,30.18,North,11,6.4,17.5,47,0.00,,,0.00,WX3IN1Plus v1.30,2013-03-08 21:29:00,
2013-03-08 16:34:00,47.3,27.9,30.19,North,4,9.3,17.0,47,0.00,,,0.00,WX3IN1Plus v1.30,2013-03-08 21:34:00,
2013-03-08 16:39:00,47.2,27.7,30.19,North,8,10.6,15.4,47,0.00,,,0.00,WX3IN1Plus v1.30,2013-03-08 21:39:00,
2013-03-08 16:44:00,47.2,27.7,30.20,North,357,6.5,24.7,47,0.00,,,0.00,WX3IN1Plus v1.30,2013-03-08 21:44:00,
2013-03-08 16:49:00,47.3,27.9,30.20,North,8,11.0,21.4,47,0.00,,,0.00,WX3IN1Plus v1.30,2013-03-08 21:49:00,
2013-03-08 16:54:00,47.2,27.7,30.20,North,350,5.9,16.5,47,0.00,,,0.00,WX3IN1Plus v1.30,2013-03-08 21:54:00,
2013-03-08 16:59:00,47.1,27.7,30.20,North,11,8.2,26.2,47,0.00,,,0.00,WX3IN1Plus v1.30,2013-03-08 21:59:00,
2013-03-08 17:04:00,47.1,27.7,30.21,NNE,14,9.8,14.6,47,0.00,,,0.00,WX3IN1Plus v1.30,2013-03-08 22:04:00,
2013-03-08 17:09:00,46.9,27.5,30.21,ENE,59,9.3,18.0,47,0.00,,,0.00,WX3IN1Plus v1.30,2013-03-08 22:09:00,
2013-03-08 17:14:00,46.8,27.5,30.22,North,5,5.0,16.2,47,0.00,,,0.00,WX3IN1Plus v1.30,2013-03-08 22:14:00,
2013-03-08 17:19:00,47.0,27.7,30.22,NNE,15,7.2,15.3,47,0.00,,,0.00,WX3IN1Plus v1.30,2013-03-08 22:19:00,
2013-03-08 17:24:00,47.0,27.7,30.22,North,4,8.0,15.4,47,0.00,,,0.00,WX3IN1Plus v1.30,2013-03-08 22:24:00,
2013-03-08 17:29:00,46.8,27.5,30.22,NNE,18,7.4,15.1,47,0.00,,,0.00,WX3IN1Plus v1.30,2013-03-08 22:29:00,
2013-03-08 17:34:00,46.9,27.5,30.23,North,358,11.0,17.5,47,0.00,,,0.00,WX3IN1Plus v1.30,2013-03-08 22:34:00,
2013-03-08 17:39:00,46.8,28.3,30.23,NNE,14,6.2,14.7,48,0.00,,,0.00,WX3IN1Plus v1.30,2013-03-08 22:39:00,
2013-03-08 17:44:00,46.9,28.3,30.23,NNE,23,6.7,16.6,48,0.00,,,0.00,WX3IN1Plus v1.30,2013-03-08 22:44:00,
2013-03-08 17:49:00,46.9,28.3,30.23,NNW,347,9.6,17.0,48,0.00,,,0.00,WX3IN1Plus v1.30,2013-03-08 22:49:00,
2013-03-08 17:54:00,47.0,28.4,30.23,North,7,5.4,16.5,48,0.00,,,0.00,WX3IN1Plus v1.30,2013-03-08 22:54:00,
2013-03-08 17:59:00,46.9,28.3,30.23,NE,53,6.6,11.2,48,0.00,,,0.00,WX3IN1Plus v1.30,2013-03-08 22:59:00,
2013-03-08 18:04:00,46.7,27.9,30.24,North,351,10.3,15.1,48,0.00,,,0.00,WX3IN1Plus v1.30,2013-03-08 23:04:00,
2013-03-08 18:09:00,46.9,28.3,30.24,North,358,5.1,16.4,48,0.00,,,0.00,WX3IN1Plus v1.30,2013-03-08 23:09:00,
2013-03-08 18:14:00,46.7,27.9,30.24,ENE,60,10.3,16.8,48,0.00,,,0.00,WX3IN1Plus v1.30,2013-03-08 23:14:00,
2013-03-08 18:19:00,46.7,27.9,30.25,NE,47,5.9,19.5,48,0.00,,,0.00,WX3IN1Plus v1.30,2013-03-08 23:19:00,
2013-03-08 18:24:00,46.5,28.4,30.25,NNE,29,7.1,10.8,49,0.00,,,0.00,WX3IN1Plus v1.30,2013-03-08 23:24:00,
2013-03-08 18:29:00,46.6,28.4,30.24,North,7,8.5,12.8,49,0.00,,,0.00,WX3IN1Plus v1.30,2013-03-08 23:29:00,
2013-03-08 18:34:00,46.6,28.4,30.25,NNE,12,10.8,17.0,49,0.00,,,0.00,WX3IN1Plus v1.30,2013-03-08 23:34:00,
2013-03-08 18:39:00,46.5,28.4,30.25,NE,50,5.8,15.5,49,0.00,,,0.00,WX3IN1Plus v1.30,2013-03-08 23:39:00,
2013-03-08 18:44:00,46.6,28.4,30.25,NNW,348,9.8,19.0,49,0.00,,,0.00,WX3IN1Plus v1.30,2013-03-08 23:44:00,
2013-03-08 18:49:00,46.3,28.3,30.25,NNE,14,7.9,21.6,49,0.00,,,0.00,WX3IN1Plus v1.30,2013-03-08 23:49:00,
2013-03-08 18:54:00,46.4,28.4,30.25,ENE,59,11.4,14.4,49,0.00,,,0.00,WX3IN1Plus v1.30,2013-03-08 23:54:00,
2013-03-08 18:59:00,46.4,28.4,30.25,NNE,30,8.2,17.4,49,0.00,,,0.00,WX3IN1Plus v1.30,2013-03-08 23:59:00,
2013-03-08 19:04:00,46.2,27.5,30.25,NE,42,8.3,15.2,48,0.00,,,0.00,WX3IN1Plus v1.30,2013-03-09 00:04:00,
2013-03-08 19:09:00,46.3,28.3,30.26,NNE,26,5.2,15.5,49,0.00,,,0.00,WX3IN1Plus v1.30,2013-03-09 00:09:00,
2013-03-08 19:14:00,46.2,27.9,30.26,NE,37,8.8,16.9,49,0.00,,,0.00,WX3IN1Plus v1.30,2013-03-09 00:14:00,
2013-03-08 19:19:00,46.1,27.9,30.26,NE,43,4.6,11.5,49,0.00,,,0.00,WX3IN1Plus v1.30,2013-03-09 00:19:00,
2013-03-08 19:24:00,46.1,27.9,30.26,NNE,25,4.2,13.2,49,0.00,,,0.00,WX3IN1Plus v1.30,2013-03-09 00:24:00,
2013-03-08 19:29:00,46.2,27.9,30.27,NE,42,10.9,12.8,49,0.00,,,0.00,WX3IN1Plus v1.30,2013-03-09 00:29:00,
2013-03-08 19:34:00,46.2,27.9,30.27,North,357,4.0,15.4,49,0.00,,,0.00,WX3IN1Plus v1.30,2013-03-09 00:34:00,
2013-03-08 19:39:00,46.0,27.9,30.27,North,5,11.1,11.9,49,0.00,,,0.00,WX3IN1Plus v1.30,2013-03-09 00:39:00,
2013-03-08 19:44:00,46.2,27.9,30.27,NNE,19,8.1,19.8,49,0.00,,,0.00,WX3IN1Plus v1.30,2013-03-09 00:44:00,
2013-03-08 19:49:00,46.2,27.5,30.28,NNE,32,10.3,15.9,48,0.00,,,0.00,WX3IN1Plus v1.30,2013-03-09 00:49:00,
2013-03-08 19:54:00,46.3,27.7,30.28,North,354,9.2,16.0,48,0.00,,,0.00,WX3IN1Plus v1.30,2013-03-09 00:54:00,
2013-03-08 19:59:00,46.1,27.5,30.28,NE,50,5.8,22.1,48,0.00,,,0.00,WX3IN1Plus v1.30,2013-03-09 00:59:00,
2013-03-08 20:04:00,46.3,27.7,30.28,NE,50,3.6,13.3,48,0.00,,,0.00,WX3IN1Plus v1.30,2013-03-09 01:04:00,
2013-03-08 20:09:00,46.3,27.0,30.28,NE,43,5.8,14.8,47,0.00,,,0.00,WX3IN1Plus v1.30,2013-03-09 01:09:00,
2013-03-08 20:14:00,46.2,27.5,30.28,NNE,25,6.8,19.3,48,0.00,,,0.00,WX3IN1Plus v1.30,2013-03-09 01:14:00,
2013-03-08 20:19:00,46.3,27.0,30.28,NNE,18,6.7,12.6,47,0.00,,,0.00,WX3IN1Plus v1.30,2013-03-09 01:19:00,
2013-03-08 20:24:00,46.1,27.5,30.28,NE,53,14.8,15.5,48,0.00,,,0.00,WX3IN1Plus v1.30,2013-03-09 01:24:00,
2013-03-08 20:29:00,46.2,27.5,30.28,NNE,29,3.9,15.5,48,0.00,,,0.00,WX3IN1Plus v1.30,2013-03-09 01:29:00,
2013-03-08 20:34:00,46.0,27.5,30.28,NNE,12,7.2,13.9,48,0.00,,,0.00,WX3IN1Plus v1.30,2013-03-09 01:34:00,
2013-03-08 20:39:00,46.1,26.8,30.29,NE,49,8.6,16.5,47,0.00,,,0.00,WX3IN1Plus v1.30,2013-03-09 01:39:00,
2013-03-08 20:44:00,45.6,27.0,30.29,North,7,6.7,13.9,48,0.00,,,0.00,WX3IN1Plus v1.30,2013-03-09 01:44:00,
2013-03-08 20:49:00,45.7,27.2,30.29,North,1,4.7,13.1,48,0.00,,,0.00,WX3IN1Plus v1.30,2013-03-09 01:49:00,
2013-03-08 20:54:00,45.6,27.5,30.29,NNW,343,4.4,13.3,49,0.00,,,0.00,WX3IN1Plus v1.30,2013-03-09 01:54:00,
2013-03-08 20:59:00,45.4,27.5,30.29,NNE,32,1.7,12.6,49,0.00,,,0.00,WX3IN1Plus v1.30,2013-03-09 01:59:00,
2013-03-08 21:04:00,45.2,27.2,30.29,NE,47,4.9,10.3,49,0.00,,,0.00,WX3IN1Plus v1.30,2013-03-09 02:04:00,
2013-03-08 21:09:00,45.1,27.0,30.30,NE,37,5.9,10.3,49,0.00,,,0.00,WX3IN1Plus v1.30,2013-03-09 02:09:00,
2013-03-08 21:14:00,44.9,27.0,30.30,ENE,70,5.1,14.1,49,0.00,,,0.00,WX3IN1Plus v1.30,2013-03-09 02:14:00,
2013-03-08 21:19:00,44.9,27.5,30.30,NNE,21,4.2,10.0,50,0.00,,,0.00,WX3IN1Plus v1.30,2013-03-09 02:19:00,
2013-03-08 21:24:00,44.7,27.2,30.30,NE,54,6.5,11.3,50,0.00,,,0.00,WX3IN1Plus v1.30,2013-03-09 02:24:00,
2013-03-08 21:30:00,44.6,27.2,30.30,ENE,68,5.7,8.7,50,0.00,,,0.00,WX3IN1Plus v1.30,2013-03-09 02:30:00,
2013-03-08 21:35:00,44.7,27.2,30.30,NE,53,9.6,13.4,50,0.00,,,0.00,WX3IN1Plus v1.30,2013-03-09 02:35:00,
2013-03-08 21:40:00,44.4,27.5,30.30,North,4,6.4,13.9,51,0.00,,,0.00,WX3IN1Plus v1.30,2013-03-09 02:40:00,
2013-03-08 21:45:00,44.6,27.7,30.30,NE,47,6.0,11.3,51,0.00,,,0.00,WX3IN1Plus v1.30,2013-03-09 02:45:00,
2013-03-08 21:50:00,44.7,27.7,30.30,NE,47,9.7,13.6,51,0.00,,,0.00,WX3IN1Plus v1.30,2013-03-09 02:50:00,
2013-03-08 21:55:00,44.8,27.9,30.30,NE,43,7.3,14.8,51,0.00,,,0.00,WX3IN1Plus v1.30,2013-03-09 02:55:00,
2013-03-08 22:00:00,44.7,27.2,30.31,North,358,2.2,13.4,50,0.00,,,0.00,WX3IN1Plus v1.30,2013-03-09 03:00:00,
2013-03-08 22:05:00,44.7,27.2,30.31,ENE,61,5.8,8.7,50,0.00,,,0.00,WX3IN1Plus v1.30,2013-03-09 03:05:00,
2013-03-08 22:10:00,44.6,27.7,30.31,North,357,6.2,10.5,51,0.00,,,0.00,WX3IN1Plus v1.30,2013-03-09 03:10:00,
2013-03-08 22:15:00,44.2,27.2,30.31,ENE,59,2.4,10.2,51,0.00,,,0.00,WX3IN1Plus v1.30,2013-03-09 03:15:00,
2013-03-08 22:20:00,44.1,27.2,30.31,North,351,0.6,9.7,51,0.00,,,0.00,WX3IN1Plus v1.30,2013-03-09 03:20:00,
2013-03-08 22:25:00,43.9,27.5,30.31,NE,36,4.9,9.1,52,0.00,,,0.00,WX3IN1Plus v1.30,2013-03-09 03:25:00,
2013-03-08 22:30:00,43.8,27.2,30.31,NE,43,5.2,12.6,52,0.00,,,0.00,WX3IN1Plus v1.30,2013-03-09 03:30:00,
2013-03-08 22:35:00,43.5,27.0,30.31,NE,56,4.4,10.8,52,0.00,,,0.00,WX3IN1Plus v1.30,2013-03-09 03:35:00,
2013-03-08 22:40:00,43.6,27.2,30.31,NNE,28,6.1,7.7,52,0.00,,,0.00,WX3IN1Plus v1.30,2013-03-09 03:40:00,
2013-03-08 22:45:00,43.4,27.0,30.31,NNE,33,5.4,10.8,52,0.00,,,0.00,WX3IN1Plus v1.30,2013-03-09 03:45:00,
2013-03-08 22:50:00,43.4,27.0,30.31,NE,45,3.2,9.1,52,0.00,,,0.00,WX3IN1Plus v1.30,2013-03-09 03:50:00,
2013-03-08 22:55:00,43.3,26.8,30.31,NE,42,3.9,9.1,52,0.00,,,0.00,WX3IN1Plus v1.30,2013-03-09 03:55:00,
2013-03-08 23:00:00,43.3,26.8,30.31,ENE,68,8.5,8.5,52,0.00,,,0.00,WX3IN1Plus v1.30,2013-03-09 04:00:00,
2013-03-08 23:05:00,42.9,26.5,30.31,ENE,77,4.5,9.2,52,0.00,,,0.00,WX3IN1Plus v1.30,2013-03-09 04:05:00,
2013-03-08 23:10:00,42.9,26.5,30.31,NNE,18,5.7,10.4,52,0.00,,,0.00,WX3IN1Plus v1.30,2013-03-09 04:10:00,
2013-03-08 23:15:00,42.8,26.5,30.31,NNE,32,6.4,10.4,52,0.00,,,0.00,WX3IN1Plus v1.30,2013-03-09 04:15:00,
2013-03-08 23:20:00,42.8,26.1,30.31,NE,47,11.2,12.5,51,0.00,,,0.00,WX3IN1Plus v1.30,2013-03-09 04:20:00,
2013-03-08 23:25:00,42.8,26.1,30.31,NNE,16,1.8,12.9,51,0.00,,,0.00,WX3IN1Plus v1.30,2013-03-09 04:25:00,
2013-03-08 23:30:00,42.7,25.7,30.31,NNE,28,2.9,12.1,51,0.00,,,0.00,WX3IN1Plus v1.30,2013-03-09 04:30:00,
2013-03-08 23:35:00,42.5,25.7,30.31,NNE,26,0.0,10.3,51,0.00,,,0.00,WX3IN1Plus v1.30,2013-03-09 04:35:00,
2013-03-08 23:40:00,42.4,25.0,30.31,ENE,71,8.5,10.2,50,0.00,,,0.00,WX3IN1Plus v1.30,2013-03-09 04:40:00,
2013-03-08 23:45:00,42.4,25.0,30.31,ENE,70,2.9,16.0,50,0.00,,,0.00,WX3IN1Plus v1.30,2013-03-09 04:45:00,
2013-03-08 23:50:00,42.3,25.0,30.31,North,358,3.2,9.9,50,0.00,,,0.00,WX3IN1Plus v1.30,2013-03-09 04:50:00,
2013-03-08 23:55:00,42.1,24.8,30.31,ENE,77,6.4,10.6,50,0.00,,,0.00,WX3IN1Plus v1.30,2013-03-09 04:55:00,